This is the latest recevied weather packets stored in our database for station/object KY4OP-13. If no packets are shown the sender has not sent any weather packets the latest 1 day(s).
| Time | Temp. | Humidity | Pressure | Rain* | Wind** | Luminosity | Snow |
|---|---|---|---|---|---|---|---|
| 1777995895 | 25.56° C | 44% | 1014.8 hPa | 0 mm | 0.45 m/s, 179° | - | - |
| 1777995591 | 26.11° C | 43% | 1014.9 hPa | 0 mm | 2.24 m/s, 235° | - | - |
| 1777995289 | 25° C | 46% | 1014.9 hPa | 0 mm | 1.79 m/s, 229° | - | - |
| 1777994985 | 25° C | 44% | 1014.9 hPa | 0 mm | 3.58 m/s, 217° | - | - |
| 1777994683 | 25.56° C | 44% | 1015 hPa | 0 mm | 0.89 m/s, 268° | - | - |
| 1777994377 | 25° C | 44% | 1015 hPa | 0 mm | 0.89 m/s, 156° | - | - |
| 1777994073 | 24.44° C | 45% | 1014.9 hPa | 0 mm | 2.68 m/s, 238° | - | - |
| 1777993771 | 25° C | 44% | 1014.8 hPa | 0 mm | 1.79 m/s, 209° | - | - |
| 1777993468 | 24.44° C | 48% | 1014.6 hPa | 0 mm | 1.79 m/s, 248° | - | - |
| 1777993167 | 24.44° C | 45% | 1014.9 hPa | 0 mm | 2.24 m/s, 213° | - | - |
| 1777992866 | 24.44° C | 47% | 1014.8 hPa | 0 mm | 1.34 m/s, 227° | - | - |
| 1777992563 | 23.89° C | 45% | 1014.7 hPa | 0 mm | 1.34 m/s, 234° | - | - |
| 1777992261 | 23.33° C | 47% | 1014.8 hPa | 0 mm | 2.24 m/s, 226° | - | - |
| 1777991958 | 23.89° C | 48% | 1014.8 hPa | 0 mm | 3.58 m/s, 217° | - | - |
| 1777991656 | 23.33° C | 50% | 1015 hPa | 0 mm | 1.34 m/s, 217° | - | - |
| 1777991353 | 23.33° C | 49% | 1014.9 hPa | 0 mm | 0.45 m/s, 225° | - | - |
| 1777991050 | 22.78° C | 52% | 1015.1 hPa | 0 mm | 1.34 m/s, 223° | - | - |
| 1777990747 | 22.22° C | 51% | 1014.8 hPa | 0 mm | 1.79 m/s, 215° | - | - |
| 1777990444 | 21.67° C | 51% | 1015 hPa | 0 mm | 1.79 m/s, 210° | - | - |
| 1777990141 | 22.22° C | 50% | 1014.9 hPa | 0 mm | 0.45 m/s, 97° | - | - |
| 1777989838 | 21.67° C | 51% | 1014.7 hPa | 0 mm | 0 m/s | - | - |
| 1777989535 | 21.67° C | 54% | 1015 hPa | 0 mm | 1.79 m/s, 229° | - | - |
| 1777989231 | 21.67° C | 52% | 1014.7 hPa | 0 mm | 1.79 m/s, 220° | - | - |
| 1777988927 | 21.11° C | 58% | 1015 hPa | 0 mm | 0 m/s | - | - |
| 1777988624 | 20.56° C | 59% | 1015 hPa | 0 mm | 0 m/s | - | - |
* Rain latest hour (hover to see other rain measurements)
** Current wind speed in m/s (hover to see current wind gust speed)